Terminal Aerodrome Forecast
Issued by NWS Charleston, WV

Current Version | Previous Version | Graphics & Text | Print | Product List | Glossary On
Versions: 1 2 3 4 5 6 7 8 9 10 11 12 13 14 15 16 17 18 19 20 21 22 23 24 25 26
918
FTUS41 KRLX 200543
TAFCRW
TAF
KCRW 200543Z 2006/2106 00000KT P6SM FEW250
     FM200800 00000KT 5SM BR FEW250
     FM201000 00000KT 2SM BR SCT001
     FM201200 00000KT 4SM BR FEW001
     FM201300 00000KT P6SM FEW250
     FM201800 22003KT P6SM SCT050
     FM210000 00000KT P6SM FEW250=

USA.gov is the U.S. government's official web portal to all federal, state and local government web resources and services.